This is the latest recevied weather packets stored in our database for station/object NR6G-12. If no packets are shown the sender has not sent any weather packets the latest 10 day(s).
| Time | Temp. | Humidity | Pressure | Rain* | Wind** | Luminosity | Snow |
|---|---|---|---|---|---|---|---|
| 1777672980 | 20° C | 57% | 1015.7 hPa | 0 mm | - | - | - |
| 1777672620 | 20° C | 58% | 1015.7 hPa | 0 mm | - | - | - |
| 1777672260 | 19.44° C | 61% | 1015.7 hPa | 0 mm | - | - | - |
| 1777671900 | 19.44° C | 61% | 1015.8 hPa | 0 mm | - | - | - |
| 1777671540 | 20° C | 58% | 1015.7 hPa | 0 mm | - | - | - |
| 1777671180 | 20° C | 58% | 1015.9 hPa | 0 mm | - | - | - |
| 1777670820 | 19.44° C | 61% | 1015.9 hPa | 0 mm | - | - | - |
| 1777670460 | 19.44° C | 61% | 1015.9 hPa | 0 mm | - | - | - |
| 1777670100 | 19.44° C | 61% | 1015.9 hPa | 0 mm | - | - | - |
| 1777669740 | 19.44° C | 61% | 1016 hPa | 0 mm | - | - | - |
| 1777669380 | 18.89° C | 62% | 1015.9 hPa | 0 mm | - | - | - |
| 1777669020 | 18.89° C | 59% | 1016.1 hPa | 0 mm | - | - | - |
| 1777668660 | 19.44° C | 60% | 1016 hPa | 0 mm | - | - | - |
| 1777668301 | 19.44° C | 61% | 1016 hPa | 0 mm | - | - | - |
| 1777667940 | 19.44° C | 64% | 1016.1 hPa | 0 mm | - | - | - |
| 1777667580 | 18.89° C | 65% | 1016.1 hPa | 0 mm | - | - | - |
| 1777667220 | 18.89° C | 65% | 1016.1 hPa | 0 mm | - | - | - |
| 1777666860 | 18.89° C | 65% | 1016.2 hPa | 0 mm | - | - | - |
| 1777666500 | 18.89° C | 62% | 1016.2 hPa | 0 mm | - | - | - |
| 1777666140 | 18.89° C | 64% | 1016.2 hPa | 0 mm | - | - | - |
| 1777665780 | 18.33° C | 63% | 1016.2 hPa | 0 mm | - | - | - |
| 1777665420 | 18.33° C | 63% | 1016.3 hPa | 0 mm | - | - | - |
| 1777665060 | 18.33° C | 63% | 1016.4 hPa | 0 mm | - | - | - |
| 1777664700 | 18.89° C | 62% | 1016.5 hPa | 0 mm | - | - | - |
| 1777664340 | 18.89° C | 64% | 1016.6 hPa | 0 mm | - | - | - |
* Rain latest hour (hover to see other rain measurements)
** Current wind speed in m/s (hover to see current wind gust speed)